Time,TemperatureF,DewpointF,PressureIn,WindDirection,WindDirectionDegrees,WindSpeedMPH,WindSpeedGustMPH,Humidity,HourlyPrecipIn,Conditions,Clouds,dailyrainin,SolarRadiationWatts/m^2,SoftwareType,DateUTC
2013-08-28 00:13:00,66.5,65.0,29.88,North,360,0.0,-999.0,96,-99.99,,,0.07,0,weatherlink.com 1.10,2013-08-28 04:13:00,
2013-08-28 00:28:00,66.2,65.0,29.88,North,360,0.0,-999.0,96,-99.99,,,0.07,0,weatherlink.com 1.10,2013-08-28 04:28:00,
2013-08-28 00:43:00,66.2,65.0,29.88,North,360,0.0,-999.0,96,-99.99,,,0.07,0,weatherlink.com 1.10,2013-08-28 04:43:00,
2013-08-28 00:58:00,65.8,65.0,29.88,North,360,0.0,-999.0,97,-99.99,,,0.07,0,weatherlink.com 1.10,2013-08-28 04:58:00,
2013-08-28 01:13:00,65.5,64.0,29.88,North,360,0.0,-999.0,96,-99.99,,,0.07,0,weatherlink.com 1.10,2013-08-28 05:13:00,
2013-08-28 01:28:00,65.3,65.0,29.87,North,360,0.0,-999.0,97,-99.99,,,0.07,0,weatherlink.com 1.10,2013-08-28 05:28:00,
2013-08-28 01:43:00,65.3,65.0,29.86,North,360,0.0,-999.0,97,-99.99,,,0.07,0,weatherlink.com 1.10,2013-08-28 05:43:00,
2013-08-28 01:58:00,65.4,65.0,29.86,North,360,0.0,-999.0,97,-99.99,,,0.07,0,weatherlink.com 1.10,2013-08-28 05:58:00,
2013-08-28 02:13:00,65.5,65.0,29.85,North,360,0.0,-999.0,97,-99.99,,,0.07,0,weatherlink.com 1.10,2013-08-28 06:13:00,
2013-08-28 02:28:00,65.4,65.0,29.85,North,360,0.0,-999.0,97,-99.99,,,0.07,0,weatherlink.com 1.10,2013-08-28 06:28:00,
2013-08-28 02:43:00,65.3,65.0,29.85,North,360,0.0,-999.0,97,-99.99,,,0.07,0,weatherlink.com 1.10,2013-08-28 06:43:00,
2013-08-28 02:58:00,65.2,64.0,29.85,North,360,0.0,-999.0,97,-99.99,,,0.00,0,weatherlink.com 1.10,2013-08-28 06:58:00,
2013-08-28 03:13:00,65.1,64.0,29.85,North,360,0.0,-999.0,97,-99.99,,,0.00,0,weatherlink.com 1.10,2013-08-28 07:13:00,
2013-08-28 03:28:00,65.4,65.0,29.84,North,360,0.0,-999.0,97,-99.99,,,0.00,0,weatherlink.com 1.10,2013-08-28 07:28:00,
2013-08-28 03:43:00,65.2,64.0,29.84,North,360,0.0,-999.0,97,-99.99,,,0.00,0,weatherlink.com 1.10,2013-08-28 07:43:00,
2013-08-28 03:58:00,64.7,64.0,29.84,North,360,0.0,-999.0,97,-99.99,,,0.00,0,weatherlink.com 1.10,2013-08-28 07:58:00,
2013-08-28 04:13:00,64.6,64.0,29.85,North,360,0.0,-999.0,97,-99.99,,,0.00,0,weatherlink.com 1.10,2013-08-28 08:13:00,
2013-08-28 04:28:00,64.5,64.0,29.85,North,360,0.0,-999.0,97,-99.99,,,0.00,0,weatherlink.com 1.10,2013-08-28 08:28:00,
2013-08-28 04:43:00,64.5,64.0,29.85,North,360,0.0,-999.0,97,-99.99,,,0.00,0,weatherlink.com 1.10,2013-08-28 08:43:00,
2013-08-28 04:58:00,64.5,64.0,29.85,North,360,0.0,-999.0,97,-99.99,,,0.00,0,weatherlink.com 1.10,2013-08-28 08:58:00,
2013-08-28 05:13:00,64.5,64.0,29.85,North,360,0.0,-999.0,97,-99.99,,,0.00,0,weatherlink.com 1.10,2013-08-28 09:13:00,
2013-08-28 05:28:00,64.8,64.0,29.85,North,360,0.0,-999.0,98,-99.99,,,0.00,0,weatherlink.com 1.10,2013-08-28 09:28:00,
2013-08-28 05:43:00,64.8,64.0,29.85,North,360,0.0,-999.0,98,-99.99,,,0.00,0,weatherlink.com 1.10,2013-08-28 09:43:00,
2013-08-28 05:58:00,64.6,64.0,29.86,North,360,0.0,-999.0,98,-99.99,,,0.00,0,weatherlink.com 1.10,2013-08-28 09:58:00,
2013-08-28 06:13:00,64.5,64.0,29.86,North,360,0.0,-999.0,98,-99.99,,,0.00,0,weatherlink.com 1.10,2013-08-28 10:13:00,
2013-08-28 06:28:00,64.4,64.0,29.87,North,360,0.0,-999.0,98,-99.99,,,0.00,5,weatherlink.com 1.10,2013-08-28 10:28:00,
2013-08-28 06:43:00,64.4,64.0,29.87,North,360,0.0,-999.0,98,-99.99,,,0.00,19,weatherlink.com 1.10,2013-08-28 10:43:00,
2013-08-28 06:58:00,64.3,64.0,29.88,North,360,0.0,-999.0,98,-99.99,,,0.00,28,weatherlink.com 1.10,2013-08-28 10:58:00,
2013-08-28 07:13:00,64.6,64.0,29.88,North,360,0.0,-999.0,98,-99.99,,,0.00,63,weatherlink.com 1.10,2013-08-28 11:13:00,
2013-08-28 07:28:00,64.9,64.0,29.87,North,360,0.0,-999.0,98,-99.99,,,0.00,67,weatherlink.com 1.10,2013-08-28 11:28:00,
2013-08-28 07:43:00,65.0,65.0,29.87,North,360,0.0,-999.0,98,-99.99,,,0.00,79,weatherlink.com 1.10,2013-08-28 11:43:00,
2013-08-28 07:58:00,65.2,65.0,29.87,North,360,0.0,-999.0,98,-99.99,,,0.00,97,weatherlink.com 1.10,2013-08-28 11:58:00,
2013-08-28 08:13:00,65.5,65.0,29.88,North,360,0.0,-999.0,98,-99.99,,,0.00,127,weatherlink.com 1.10,2013-08-28 12:13:00,
2013-08-28 08:28:00,66.0,66.0,29.88,North,360,0.0,-999.0,98,-99.99,,,0.00,197,weatherlink.com 1.10,2013-08-28 12:28:00,
2013-08-28 08:43:00,66.8,66.0,29.87,North,360,0.0,-999.0,98,-99.99,,,0.00,209,weatherlink.com 1.10,2013-08-28 12:43:00,
2013-08-28 08:58:00,67.7,67.0,29.87,North,360,0.0,-999.0,98,-99.99,,,0.00,232,weatherlink.com 1.10,2013-08-28 12:58:00,
2013-08-28 09:13:00,69.3,69.0,29.86,North,360,0.0,-999.0,98,-99.99,,,0.00,454,weatherlink.com 1.10,2013-08-28 13:13:00,
2013-08-28 09:28:00,71.5,71.0,29.86,North,360,0.0,-999.0,98,-99.99,,,0.00,501,weatherlink.com 1.10,2013-08-28 13:28:00,
2013-08-28 09:43:00,73.0,71.0,29.87,North,360,0.0,-999.0,92,-99.99,,,0.00,540,weatherlink.com 1.10,2013-08-28 13:43:00,
2013-08-28 09:58:00,75.1,71.0,29.87,West,260,0.0,-999.0,88,-99.99,,,0.00,613,weatherlink.com 1.10,2013-08-28 13:58:00,
2013-08-28 10:13:00,78.0,72.0,29.86,SSW,205,0.0,-999.0,81,-99.99,,,0.00,622,weatherlink.com 1.10,2013-08-28 14:13:00,
2013-08-28 10:28:00,79.5,71.0,29.86,SSW,205,0.0,-999.0,76,-99.99,,,0.00,657,weatherlink.com 1.10,2013-08-28 14:28:00,
2013-08-28 10:43:00,80.0,71.0,29.86,WSW,248,1.0,-999.0,75,-99.99,,,0.00,687,weatherlink.com 1.10,2013-08-28 14:43:00,
2013-08-28 10:58:00,82.0,72.0,29.86,SW,230,1.0,-999.0,71,-99.99,,,0.00,717,weatherlink.com 1.10,2013-08-28 14:58:00,
2013-08-28 11:13:00,82.3,71.0,29.86,SW,231,0.0,-999.0,69,-99.99,,,0.00,737,weatherlink.com 1.10,2013-08-28 15:13:00,
2013-08-28 11:28:00,82.3,70.0,29.85,West,281,1.0,-999.0,67,-99.99,,,0.00,772,weatherlink.com 1.10,2013-08-28 15:28:00,
2013-08-28 11:43:00,82.7,71.0,29.85,West,279,0.0,-999.0,68,-99.99,,,0.00,795,weatherlink.com 1.10,2013-08-28 15:43:00,
2013-08-28 11:58:00,84.5,71.0,29.84,West,278,1.0,-999.0,65,-99.99,,,0.00,867,weatherlink.com 1.10,2013-08-28 15:58:00,
2013-08-28 12:13:00,84.7,72.0,29.84,WNW,293,2.0,-999.0,66,-99.99,,,0.00,888,weatherlink.com 1.10,2013-08-28 16:13:00,
2013-08-28 12:28:00,84.9,71.0,29.84,West,267,3.0,-999.0,63,-99.99,,,0.00,954,weatherlink.com 1.10,2013-08-28 16:28:00,
2013-08-28 12:43:00,83.8,70.0,29.84,West,276,0.0,-999.0,64,-99.99,,,0.00,223,weatherlink.com 1.10,2013-08-28 16:43:00,
2013-08-28 13:13:00,84.7,71.0,29.83,West,276,0.0,-999.0,64,-99.99,,,0.00,411,weatherlink.com 1.10,2013-08-28 17:13:00,
2013-08-28 13:28:00,84.5,73.0,29.83,West,273,0.0,-999.0,68,-99.99,,,0.00,179,weatherlink.com 1.10,2013-08-28 17:28:00,
2013-08-28 13:43:00,84.1,72.0,29.82,West,272,0.0,-999.0,66,-99.99,,,0.00,181,weatherlink.com 1.10,2013-08-28 17:43:00,
2013-08-28 13:58:00,83.6,71.0,29.82,West,273,0.0,-999.0,66,-99.99,,,0.00,183,weatherlink.com 1.10,2013-08-28 17:58:00,
2013-08-28 14:13:00,84.2,72.0,29.82,South,180,2.0,-999.0,66,-99.99,,,0.00,816,weatherlink.com 1.10,2013-08-28 18:13:00,
2013-08-28 14:28:00,85.0,70.0,29.82,South,177,2.0,-999.0,61,-99.99,,,0.00,568,weatherlink.com 1.10,2013-08-28 18:28:00,
2013-08-28 14:43:00,85.0,71.0,29.82,South,172,5.0,-999.0,64,-99.99,,,0.00,343,weatherlink.com 1.10,2013-08-28 18:43:00,
2013-08-28 14:58:00,84.6,71.0,29.82,SSW,202,0.0,-999.0,63,-99.99,,,0.00,236,weatherlink.com 1.10,2013-08-28 18:58:00,
2013-08-28 15:13:00,84.0,71.0,29.82,SSW,200,3.0,-999.0,66,-99.99,,,0.00,216,weatherlink.com 1.10,2013-08-28 19:13:00,
2013-08-28 15:28:00,81.2,70.0,29.83,WSW,258,5.0,-999.0,69,-99.99,,,0.00,200,weatherlink.com 1.10,2013-08-28 19:28:00,
2013-08-28 15:43:00,79.1,70.0,29.84,SW,234,4.0,-999.0,74,-99.99,,,0.00,195,weatherlink.com 1.10,2013-08-28 19:43:00,
2013-08-28 15:58:00,77.5,71.0,29.84,NW,315,0.0,-999.0,79,-99.99,,,0.00,172,weatherlink.com 1.10,2013-08-28 19:58:00,
2013-08-28 16:13:00,77.3,71.0,29.84,WSW,239,0.0,-999.0,81,-99.99,,,0.00,148,weatherlink.com 1.10,2013-08-28 20:13:00,
2013-08-28 16:28:00,77.2,71.0,29.83,South,175,1.0,-999.0,80,-99.99,,,0.00,163,weatherlink.com 1.10,2013-08-28 20:28:00,
2013-08-28 16:43:00,76.8,71.0,29.83,South,190,0.0,-999.0,82,-99.99,,,0.00,167,weatherlink.com 1.10,2013-08-28 20:43:00,
2013-08-28 16:58:00,76.8,71.0,29.83,WSW,244,1.0,-999.0,82,-99.99,,,0.00,167,weatherlink.com 1.10,2013-08-28 20:58:00,
2013-08-28 17:14:00,76.7,71.0,29.83,South,179,0.0,-999.0,81,-99.99,,,0.00,153,weatherlink.com 1.10,2013-08-28 21:14:00,
2013-08-28 17:28:00,76.3,70.0,29.84,WNW,287,0.0,-999.0,81,-99.99,,,0.00,130,weatherlink.com 1.10,2013-08-28 21:28:00,
2013-08-28 17:43:00,75.9,69.0,29.84,SW,231,0.0,-999.0,80,-99.99,,,0.00,109,weatherlink.com 1.10,2013-08-28 21:43:00,
2013-08-28 17:58:00,75.9,69.0,29.84,SW,231,0.0,-999.0,80,-99.99,,,0.00,102,weatherlink.com 1.10,2013-08-28 21:58:00,
2013-08-28 18:13:00,75.7,70.0,29.84,SW,231,0.0,-999.0,81,-99.99,,,0.00,83,weatherlink.com 1.10,2013-08-28 22:13:00,
2013-08-28 18:28:00,75.7,70.0,29.84,SW,231,0.0,-999.0,82,-99.99,,,0.00,60,weatherlink.com 1.10,2013-08-28 22:28:00,
2013-08-28 18:43:00,75.2,70.0,29.84,SW,231,0.0,-999.0,84,-99.99,,,0.00,40,weatherlink.com 1.10,2013-08-28 22:43:00,
2013-08-28 18:58:00,74.8,70.0,29.85,SW,231,0.0,-999.0,85,-99.99,,,0.00,26,weatherlink.com 1.10,2013-08-28 22:58:00,
2013-08-28 19:13:00,74.2,70.0,29.85,SW,231,0.0,-999.0,86,-99.99,,,0.00,11,weatherlink.com 1.10,2013-08-28 23:13:00,
2013-08-28 19:28:00,73.8,70.0,29.84,SW,231,0.0,-999.0,87,-99.99,,,0.00,0,weatherlink.com 1.10,2013-08-28 23:28:00,
2013-08-28 19:43:00,73.2,70.0,29.84,SW,231,0.0,-999.0,88,-99.99,,,0.00,0,weatherlink.com 1.10,2013-08-28 23:43:00,
2013-08-28 19:58:00,72.4,69.0,29.85,SW,231,0.0,-999.0,90,-99.99,,,0.00,0,weatherlink.com 1.10,2013-08-28 23:58:00,
2013-08-28 20:13:00,72.0,69.0,29.87,SW,231,0.0,-999.0,91,-99.99,,,0.00,0,weatherlink.com 1.10,2013-08-29 00:13:00,
2013-08-28 20:28:00,71.6,69.0,29.87,SW,231,0.0,-999.0,92,-99.99,,,0.00,0,weatherlink.com 1.10,2013-08-29 00:28:00,
2013-08-28 20:43:00,71.1,69.0,29.87,SW,231,0.0,-999.0,93,-99.99,,,0.00,0,weatherlink.com 1.10,2013-08-29 00:43:00,
2013-08-28 20:58:00,70.7,69.0,29.87,SW,231,0.0,-999.0,93,-99.99,,,0.00,0,weatherlink.com 1.10,2013-08-29 00:58:00,
2013-08-28 21:13:00,70.4,69.0,29.88,SW,231,0.0,-999.0,94,-99.99,,,0.00,0,weatherlink.com 1.10,2013-08-29 01:13:00,
2013-08-28 21:28:00,70.1,68.0,29.88,SW,231,0.0,-999.0,94,-99.99,,,0.00,0,weatherlink.com 1.10,2013-08-29 01:28:00,
2013-08-28 21:43:00,69.8,68.0,29.88,SW,231,0.0,-999.0,95,-99.99,,,0.00,0,weatherlink.com 1.10,2013-08-29 01:43:00,
2013-08-28 21:58:00,69.5,68.0,29.88,SW,231,0.0,-999.0,95,-99.99,,,0.00,0,weatherlink.com 1.10,2013-08-29 01:58:00,
2013-08-28 22:13:00,69.0,68.0,29.88,SW,231,0.0,-999.0,95,-99.99,,,0.00,0,weatherlink.com 1.10,2013-08-29 02:13:00,
2013-08-28 22:28:00,68.5,67.0,29.88,SW,231,0.0,-999.0,95,-99.99,,,0.00,0,weatherlink.com 1.10,2013-08-29 02:28:00,
2013-08-28 22:43:00,68.3,67.0,29.87,SW,231,0.0,-999.0,96,-99.99,,,0.00,0,weatherlink.com 1.10,2013-08-29 02:43:00,
2013-08-28 22:58:00,67.8,67.0,29.87,SW,231,0.0,-999.0,96,-99.99,,,0.00,0,weatherlink.com 1.10,2013-08-29 02:58:00,
2013-08-28 23:13:00,67.4,66.0,29.88,SW,231,0.0,-999.0,96,-99.99,,,0.00,0,weatherlink.com 1.10,2013-08-29 03:13:00,
2013-08-28 23:29:00,67.5,66.0,29.87,SW,231,0.0,-999.0,96,-99.99,,,0.00,0,weatherlink.com 1.10,2013-08-29 03:29:00,
2013-08-28 23:43:00,67.2,66.0,29.88,SW,231,0.0,-999.0,96,-99.99,,,0.00,0,weatherlink.com 1.10,2013-08-29 03:43:00,
2013-08-28 23:58:00,67.0,66.0,29.88,SW,231,0.0,-999.0,97,-99.99,,,0.00,0,weatherlink.com 1.10,2013-08-29 03:58:00,